Starlink 32206

operational
NORAD ID: 60273 Int'l Des: 2024-131 Owner: SPXS Country: US Constellation: starlink
LEOCIRCULAR

About Starlink 32206

Description loading...

Live Position

Loading 3D Globe...

Upcoming Passes

Altitude History

Altitude vs Time

uPlot chart will show altitude changes over time

Two-Line Element Set

1 60273U 24131U 25304.29006028 -.00001166 00000-0 -27254-4 0 9990
2 60273 53.1613 293.7252 0001273 95.1791 264.9355 15.30188722 71902
Epoch: Oct 31, 2025 • Age: 7 hours

Current Status

Altitude 480.5 km
Velocity 7.63 km/s
Sub-Earth Point 51.21°N, 116.86°E
Launch Date Jul 27, 2024
Age 1.2 years
Type internet

Technical Details

Classification Payload
Mass 730.00 kg
Dry Mass 700.00 kg
Total Mass 730.00 kg
Length 0.30 m
Diameter 4.10 m
Span 29.00 m
Shape Box + pan
Manufacturer SPXS
Bus Type Starlink V2M
Phase Status In Orbit
Owner/State SPXS/US

Large Constellations

Loading constellations...